Flag for Mauritania Weather past 2 weeks in Nouadhibou, Mauritania

Now
63 °F

Passing clouds.


Feels Like: 63 °F
Forecast: 61 / 77 °F
Wind: 18 mph from North

Location: Nouadhibou Airport

Current Time: Apr 20, 2015 at 1:25:13 AM

Latest Report: Apr 20, 2015 at 1:00 AM


Visibility: 5 mi

Pressure: 29.92 "Hg

Humidity: 77%

Dew point: 55 °F

Location of NouadhibouLocation

Historic Weather in Nouadhibou — Graph

°F

Nouadhibou temperature yesterday

Maximum temperature yesterday: 77 °F (at 12:00 PM)
Minimum temperature yesterday: 59 °F (at 6:00 AM)
Average temperature yesterday: 66 °F

Past Weeks' High & Low Weather Summary

 TemperatureHumidityPressure
High79 °F (Apr 10, 1:00 PM)94% (Apr 8, 4:00 AM)30.09 "Hg (Apr 8, 4:00 AM)
Low59 °F (Apr 19, 6:00 AM)39% (Apr 10, 1:00 PM)29.86 "Hg (Apr 5, 5:01 PM)
Average66 °F73%29.97 "Hg
* Reported Midnight between Apr 4 and Apr 5 — Midnight between Apr 19 and Apr 20, Nouadhibou, Weather by CustomWeather, © 2015

Note: Actual official high and low records may vary slightly from our data, if they occured in-between our weather recording intervals... More about our weather records

Advertising

Nouadhibou weather history for previous 24 hours

 ConditionsComfort  
Time TempWeatherWind HumidityBarometerVisibility
12:00 AM
Mon, Apr 20
63 °FPassing clouds.18 mph77%29.95 "Hg5 mi
10:00 PM
Sun, Apr 19
64 °FPassing clouds.17 mph78%29.92 "Hg5 mi
9:00 PM64 °FClear.17 mph78%29.92 "Hg4 mi
8:00 PM64 °FSandstorm.16 mph78%29.89 "Hg4 mi
6:00 PM68 °FSandstorm.23 mph69%29.86 "Hg4 mi
5:00 PM70 °FSandstorm.22 mph64%29.86 "Hg4 mi
4:00 PM68 °FClear.23 mph69%29.89 "Hg5 mi
3:00 PM70 °FClear.22 mph64%29.89 "Hg5 mi
2:00 PM72 °FClear.20 mph61%29.92 "Hg5 mi
1:00 PM75 °FClear.14 mph54%29.92 "Hg5 mi
12:00 PM77 °FClear.18 mph42%29.95 "Hg5 mi
11:00 AM72 °FClear.23 mph57%29.95 "Hg5 mi
10:00 AM68 °FClear.25 mph69%29.98 "Hg5 mi
9:00 AM64 °FClear.25 mph73%29.95 "Hg5 mi
8:00 AM61 °FClear.18 mph83%29.95 "Hg5 mi
7:00 AM59 °FClear.18 mph88%29.95 "Hg5 mi
6:00 AM59 °FClear.16 mph94%29.92 "Hg5 mi
4:00 AM61 °FClear.17 mph88%29.95 "Hg5 mi
3:00 AM61 °FClear.16 mph88%29.95 "Hg5 mi
2:00 AM61 °FClear.17 mph88%29.95 "Hg5 mi
1:00 AM61 °FClear.18 mph88%29.98 "Hg5 mi
Weather by CustomWeather, © 2015

See weather overviewHow to use our weather pages